Location: Hains Lake
(37.8540°N, 99.8578°W)
Time: 11:31:30
(UTC+00:00)

Courier 1B - All Passes

Search period start: 18 April 2021 00:00
Search period end: 28 April 2021 00:00
Orbit: 962 x 1209 km, 28.3° (Epoch: 17 April)

Date Brightness Start Highest point End Pass type
(mag) Time Alt. Az. Time Alt. Az. Time Alt. Az.
18 Apr - 01:19:18 10° WSW 01:23:38 18° SSW 01:28:07 10° SSE daylight
18 Apr - 18:45:49 10° SSW 18:50:10 19° SSE 18:54:28 10° ESE daylight
18 Apr - 20:37:42 10° SW 20:43:24 33° S 20:49:05 10° ESE daylight
18 Apr - 22:31:01 10° WSW 22:36:46 34° S 22:42:39 10° ESE daylight
19 Apr - 00:25:13 10° WSW 00:30:05 22° SSW 00:35:04 10° SSE daylight
19 Apr - 17:53:08 10° S 17:56:39 15° SSE 18:00:06 10° ESE daylight
19 Apr - 19:44:16 10° SW 19:49:50 30° SSE 19:55:19 10° ESE daylight
19 Apr - 21:37:22 10° WSW 21:43:11 36° S 21:49:03 10° ESE daylight
19 Apr - 23:31:18 10° WSW 23:36:31 26° SSW 23:41:50 10° SE daylight
20 Apr - 01:28:10 10° SW 01:29:40 11° SSW 01:31:10 10° SSW daylight
20 Apr - 17:01:12 10° S 17:03:07 11° SSE 17:05:00 10° SE daylight
20 Apr - 18:50:54 10° SW 18:56:16 26° SSE 19:01:31 10° ESE daylight
20 Apr - 20:43:45 10° WSW 20:49:36 36° S 20:55:25 10° ESE daylight
20 Apr - 22:37:30 10° WSW 22:42:57 29° SSW 22:48:29 10° SE daylight
21 Apr - 00:32:49 10° SW 00:36:08 14° SSW 00:39:30 10° S daylight
21 Apr - 17:57:39 10° SSW 18:02:42 22° SSE 18:07:37 10° ESE daylight
21 Apr - 19:50:08 10° WSW 19:56:01 35° S 20:01:47 10° ESE daylight
21 Apr - 21:43:44 10° WSW 21:49:23 32° S 21:55:04 10° SE daylight
21 Apr - 23:38:24 10° WSW 23:42:36 18° SSW 23:46:52 10° SSE daylight
22 Apr - 17:04:34 10° SSW 17:09:08 19° SSE 17:13:34 10° ESE daylight
22 Apr - 18:56:33 10° SW 19:02:26 33° S 19:08:07 10° ESE daylight
22 Apr - 20:49:58 10° WSW 20:55:49 35° S 21:01:35 10° ESE daylight
22 Apr - 22:44:16 10° WSW 22:49:04 22° SSW 22:53:55 10° SSE daylight
23 Apr - 16:11:47 10° S 16:15:34 15° SSE 16:19:14 10° ESE daylight
23 Apr - 18:03:01 10° SW 18:08:50 30° SSE 18:14:25 10° ESE daylight
23 Apr - 19:56:15 10° WSW 20:02:14 36° S 20:08:03 10° ESE daylight
23 Apr - 21:50:18 10° WSW 21:55:33 26° SSW 22:00:46 10° SE daylight
23 Apr - 23:47:07 10° SW 23:48:38 11° SSW 23:50:07 10° SSW daylight
24 Apr - 15:19:42 10° S 15:21:59 12° SSE 15:24:13 10° SE daylight
24 Apr - 17:09:33 10° SW 17:15:14 27° SSE 17:20:39 10° ESE daylight
24 Apr - 19:02:31 10° WSW 19:08:38 36° S 19:14:31 10° ESE daylight
24 Apr - 20:56:24 10° WSW 21:02:00 30° SSW 21:07:30 10° SE daylight
24 Apr - 22:51:45 10° WSW 22:55:07 15° SSW 22:58:30 10° S daylight
25 Apr - 16:16:13 10° SSW 16:21:36 23° SSE 16:26:46 10° ESE daylight
25 Apr - 18:08:49 10° WSW 18:15:00 35° S 18:20:55 10° ESE daylight
25 Apr - 20:02:32 10° WSW 20:08:26 33° S 20:14:09 10° SE daylight
25 Apr - 21:57:17 10° WSW 22:01:37 19° SSW 22:05:56 10° SSE daylight
26 Apr - 15:23:04 10° SSW 15:27:59 19° SSE 15:32:43 10° ESE daylight
26 Apr - 17:15:07 10° SW 17:21:22 34° S 17:27:18 10° ESE daylight
26 Apr - 19:08:41 10° WSW 19:14:50 36° S 19:20:43 10° ESE daylight
26 Apr - 21:03:05 10° WSW 21:08:06 23° SSW 21:13:02 10° SSE daylight
27 Apr - 14:30:14 10° S 14:34:20 16° SSE 14:38:20 10° ESE daylight
27 Apr - 16:21:31 10° SW 16:27:42 31° SSE 16:33:35 10° ESE daylight
27 Apr - 18:14:51 10° WSW 18:21:12 37° S 18:27:15 10° ESE daylight
27 Apr - 20:09:01 10° WSW 20:14:34 27° SSW 20:19:57 10° SE daylight
27 Apr - 22:05:33 10° SW 22:07:37 12° SSW 22:09:40 10° S daylight
